Regional Weather Roundup
Issued by NWS

Home | Current Version | Previous Version | Text Only | Print | Product List | Glossary On
Versions: 1 2 3 4 5 6 7 8 9 10 11 12 13 14 15 16 17 18 19 20 21 22 23 24 25 26 27 28
000
ASUS44 KJAN 231010
RWRMS

MISSISSIPPI HOURLY WEATHER ROUNDUP
NATIONAL WEATHER SERVICE JACKSON MS
400 AM CST MON JAN 23 2017

NOTE: "FAIR: INDICATES FEW OR NO CLOUDS BELOW 12,000 FEET WITH NO
SIGNIFICANT WEATHER AND/OR OBSTRUCTIONS TO VISIBILITY.

MSZ001>002-007>008-010>013-018>021-025>028-034>036-231100-
NORTHWEST MISSISSIPPI

CITY           SKY/WX    TMP DP  RH WIND       PRES   REMARKS
BATESVILLE     CLOUDY    48  42  77 NW17G24   29.66S
CLARKSDALE     PTCLDY    46  43  87 NW15      29.71R
CLEVELAND      FAIR      48  46  94 NW15G21   29.72R
GREENWOOD      CLOUDY    50  42  74 NW14G21   29.68R
GREENVILLE     CLEAR     50  42  74 NW18G26   29.73R
OXFORD         CLOUDY    46  41  81 NW14G25   29.64R
TUNICA         CLOUDY    43  37  81 NW20G26   29.70R
WINONA         CLOUDY    49  44  84 NW7G20    29.64R
$$

MSZ003>006-009-014>017-022>024-029>033-037>039-231100-
NORTHEAST MISSISSIPPI

CITY           SKY/WX    TMP DP  RH WIND       PRES   REMARKS
COLUMBUS AFB   CLOUDY    55  50  82 NW22G29   29.52R
CORINTH        CLOUDY    48  43  81 NW18G29   29.54R
GOLDN TRIANGLE CLOUDY    54  46  76 NW18G29   29.48R
STARKVILLE     CLOUDY    52  46  82 NW13G25   29.57R
TUPELO         CLOUDY    52  44  74 NW20G32   29.54R
$$

MSZ040-058-231100-
CENTRAL MISSISSIPPI

CITY           SKY/WX    TMP DP  RH WIND       PRES   REMARKS
JACKSON INTL   CLOUDY    54  46  74 NW14G25   29.67R
JACKSON HAWKNS CLOUDY    53  46  77 NW13G24   29.67R
MADISON        CLOUDY   N/A N/A N/A NW13G23   29.66R
MERIDIAN KEY   CLOUDY    53  53 100 NW14G25   29.56R
MERIDIAN NAS   CLOUDY    54  49  83 W21G33    29.54R
RAYMOND          N/A    N/A N/A N/A MISG        N/A
VICKSBURG VKS  CLOUDY    54  46  76 NW10G20   29.73R
$$

MSZ059>079-231100-
SOUTH MISSISSIPPI

CITY           SKY/WX    TMP DP  RH WIND       PRES   REMARKS
BROOKHAVEN     CLOUDY    54  46  76 NW14G23   29.70R
HATTIESBURG    CLOUDY    55  49  80 NW18G24   29.63R
LAUREL         CLOUDY    52  52  99 NW16G32   29.62R
MCCOMB         CLOUDY    54  46  74 NW14G25   29.69R
NATCHEZ        CLOUDY    52  41  66 NW10G22   29.74R
PINE BELT      CLOUDY    54  45  71 NW14G21   29.64R
$$

MSZ080>082-231100-
COASTAL MISSISSIPPI

CITY           SKY/WX    TMP DP  RH WIND       PRES   REMARKS
BILOXI         MOCLDY    58  51  79 NW15G23   29.60R
PASCAGOULA     CLOUDY    57  51  80 W10G20    29.58R
GULFPORT       MOCLDY    58  50  75 W18G26    29.60R
$$

LAZ007>009-015>016-023>026-231100-
NORTHEAST LOUISIANA

CITY           SKY/WX    TMP DP  RH WIND       PRES   REMARKS
BASTROP        FAIR      49  41  73 NW10G17   29.76R
TALLULAH/VBURG MOCLDY    52  45  77 NW9       29.74R
VIDALIA        CLOUDY    53  42  66 NW12G18   29.79R
$$




USA.gov is the U.S. government's official web portal to all federal, state and local government web resources and services.